Station OOUH1 - 1612340 - Honolulu, HI Image indicating link to RSS feed of recent meteorological observations for station OOUH1


Conditions at OOUH1 as of
(12:48 am HAST)
1048 GMT on 04/16/2024:
     

Click on the graph icon in the table below to see a time series plot of the last five days of that observation.

5-day plot - Wind Direction Wind Direction (WDIR): N ( 350 deg true )
5-day plot - Wind Speed Wind Speed (WSPD): 1.0 kts
5-day plot - Wind Gust Wind Gust (GST): 4.1 kts
5-day plot - Atmospheric Pressure Atmospheric Pressure (PRES):29.93 in
5-day plot - Air Temperature Air Temperature (ATMP): 70.3 °F
5-day plot - Water Temperature Water Temperature (WTMP): 77.4 °F
5-day plot - Wind Speed at 10 Meters Wind Speed at 10 meters (WSPD10M): 1.9 kts
5-day plot - Wind Speed at 20 Meters Wind Speed at 20 meters (WSPD20M): 1.9 kts
5-day plot -  Wind Speed, Wind Gust and Atmospheric Pressure Combined plot of Wind Speed, Gust, and Air Pressure
NOS Water Level Observation Network Water Level
Previous observations
TIME
(HAST)
5-day plot - Wind Direction
WDIR
 
5-day plot - Wind Speed
WSPD
kts
5-day plot - Wind Gust
GST
kts
5-day plot - Wave Height
WVHT
ft
5-day plot - Dominant Wave Period
DPD
sec
5-day plot - Average Wave Period
APD
sec
5-day plot - Mean Wave Direction
MWD
 
5-day plot - Atmospheric Pressure
PRES
in
5-day plot - Pressure Tendency
PTDY
in
5-day plot - Air Temperature
ATMP
°F
5-day plot - Water Temperature
WTMP
°F
5-day plot - Dew Point
DEWP
°F
5-day plot - Salinity
SAL
psu
5-day plot - Visibility
VIS
nmi
5-day plot - Tide (above MLLW)
TIDE
ft
2024-04-16 12:42 amNNW 2.9 5.1----29.93- 70.3 77.4----
2024-04-16 12:36 amNNW 4.1 5.1----29.93- 70.2 77.5----
2024-04-16 12:30 am N 1.9 4.1----29.93- 70.5 77.5----
2024-04-16 12:24 am N 2.9 5.1----29.93- 70.2 77.5----
2024-04-16 12:18 am N 1.9 5.1----29.93- 70.3 77.5----
2024-04-16 12:12 am- 0.0 1.0----29.93- 70.5 77.5----
2024-04-16 12:06 am- 0.0 1.9----29.93- 71.1 77.5----
2024-04-16 12:00 am- 0.0 1.9----29.93+0.01 71.1 77.5----
2024-04-15 11:54 pm- 0.0 1.9----29.93- 71.4 77.5----
2024-04-15 11:48 pm N 1.0 2.9----29.93- 71.2 77.5----
2024-04-15 11:42 pm- 0.0 1.0----29.93- 71.4 77.7----
2024-04-15 11:36 pm- 0.0 0.0----29.93- 71.4 77.7----
2024-04-15 11:30 pm- 0.0 1.0----29.93- 71.6 77.7----
2024-04-15 11:24 pm N 1.9 2.9----29.94- 71.8 77.7----
2024-04-15 11:18 pm N 1.0 1.0----29.93- 71.8 77.7----
2024-04-15 11:12 pm- 0.0 1.9----29.93- 71.8 77.7----
2024-04-15 11:06 pm- 0.0 1.0----29.93- 71.8 77.7----
2024-04-15 11:00 pmENE 1.0 1.9----29.93+0.03 71.8 77.9----
2024-04-15 10:54 pmESE 1.9 2.9----29.93- 71.8 77.9----
2024-04-15 10:48 pmENE 1.9 1.9----29.93- 72.0 77.9----
2024-04-15 10:42 pm E 1.0 1.9----29.93- 72.0 77.9----
2024-04-15 10:36 pmENE 1.0 1.9----29.93- 72.0 77.9----
2024-04-15 10:30 pm NE 1.0 5.1----29.93- 72.0 77.9----
2024-04-15 10:24 pm N 1.9 4.1----29.93- 72.1 77.9----
2024-04-15 10:18 pm N 1.9 4.1----29.93- 72.1 77.9----
2024-04-15 10:12 pmNNW 2.9 2.9----29.93- 72.0 77.9----
2024-04-15 10:06 pmNNW 1.9 4.1----29.93- 72.1 77.9----
2024-04-15 10:00 pmNNW 1.9 2.9----29.93+0.05 72.3 77.9----
2024-04-15 09:54 pm- 0.0 1.0----29.93- 72.7 77.9----
2024-04-15 09:48 pm- 0.0 1.9----29.93- 72.7 77.9----
2024-04-15 09:42 pm- 0.0 1.9----29.93- 72.5 77.9----
2024-04-15 09:36 pmNNE 1.0 1.9----29.93- 72.5 78.1----
2024-04-15 09:30 pmENE 1.0 1.9----29.93- 72.3 78.1----
2024-04-15 09:24 pmENE 1.9 2.9----29.93- 72.5 78.1----
2024-04-15 09:18 pm E 1.0 2.9----29.92- 73.0 78.1----
2024-04-15 09:12 pmENE 1.9 4.1----29.92- 73.2 78.1----
2024-04-15 09:06 pmENE 2.9 4.1----29.92- 73.0 78.1----
2024-04-15 09:00 pmENE 1.0 1.9----29.92+0.05 73.4 78.1----
2024-04-15 08:54 pm NE 1.0 1.9----29.92- 73.2 78.1----
2024-04-15 08:48 pm E 1.9 2.9----29.92- 73.4 78.1----
2024-04-15 08:42 pm NE 1.0 2.9----29.92- 73.6 78.1----
2024-04-15 08:36 pmNNE 1.9 4.1----29.92- 73.8 78.1----
2024-04-15 08:30 pm N 2.9 4.1----29.92- 73.9 78.1----
2024-04-15 08:24 pm N 1.9 5.1----29.91- 73.9 78.1----
2024-04-15 08:18 pm N 2.9 5.1----29.91- 73.9 78.1----
2024-04-15 08:12 pmNNW 2.9 5.1----29.91- 73.9 78.3----
2024-04-15 08:06 pm N 4.1 7.0----29.91- 73.9 78.3----
2024-04-15 08:00 pmNNW 4.1 6.0----29.91+0.05 74.1 78.3----
2024-04-15 07:54 pmNNW 4.1 8.9----29.91- 74.7 78.3----
2024-04-15 07:48 pm NW 8.0 11.1----29.90- 74.8 78.3----
2024-04-15 07:42 pmWNW 8.0 12.0----29.90- 74.8 78.3----
2024-04-15 07:36 pm W 7.0 12.0----29.90- 74.8 78.3----
2024-04-15 07:30 pm W 9.9 12.0----29.90- 74.8 78.3----
2024-04-15 07:24 pm W 11.1 13.0----29.89- 75.0 78.3----
2024-04-15 07:18 pm W 9.9 12.0----29.89- 74.8 78.3----
2024-04-15 07:12 pm W 9.9 13.0----29.89- 75.0 78.3----
2024-04-15 07:06 pm W 9.9 14.0----29.89- 75.2 78.4----
2024-04-15 07:00 pm W 11.1 13.0----29.89+0.03 75.4 78.4----
2024-04-15 06:54 pm W 11.1 15.0----29.88- 75.2 78.4----
2024-04-15 06:48 pm W 9.9 14.0----29.88- 75.6 78.4----
2024-04-15 06:42 pm W 8.9 14.0----29.88- 75.9 78.4----
2024-04-15 06:36 pm W 12.0 14.0----29.88- 75.9 78.4----
2024-04-15 06:30 pm W 11.1 13.0----29.88- 75.7 78.4----
2024-04-15 06:24 pm W 11.1 15.0----29.88- 76.3 78.4----
2024-04-15 06:18 pm W 11.1 13.0----29.88- 75.9 78.4----
2024-04-15 06:12 pm W 11.1 14.0----29.87- 75.7 78.4----
2024-04-15 06:06 pm W 11.1 14.0----29.87- 75.9 78.4----
2024-04-15 06:00 pm W 9.9 14.0----29.87+0.00 76.6 78.4----
2024-04-15 05:54 pm W 11.1 15.0----29.87- 77.0 78.4----
2024-04-15 05:48 pm W 13.0 15.9----29.87- 77.2 78.6----
2024-04-15 05:42 pm W 13.0 17.1----29.86- 77.2 78.6----
2024-04-15 05:36 pm W 12.0 18.1----29.86- 77.0 78.6----
2024-04-15 05:30 pm W 13.0 17.1----29.86- 76.8 78.6----
2024-04-15 05:24 pm W 13.0 15.9----29.86- 76.8 78.6----
2024-04-15 05:18 pm W 12.0 18.1----29.86- 76.8 78.4----
2024-04-15 05:12 pm W 12.0 15.0----29.86- 77.0 78.4----
2024-04-15 05:06 pmWSW 13.0 17.1----29.86- 76.1 78.4----
2024-04-15 05:00 pm W 12.0 15.9----29.86-0.02 76.3 78.4----
2024-04-15 04:54 pmWSW 11.1 17.1----29.86- 76.5 78.4----
2024-04-15 04:48 pm W 12.0 17.1----29.86- 76.5 78.3----
2024-04-15 04:42 pm W 12.0 15.9----29.86- 76.6 78.3----
2024-04-15 04:36 pm W 11.1 15.0----29.86- 76.6 78.3----
2024-04-15 04:30 pmWSW 14.0 17.1----29.86-- 78.3----
2024-04-15 04:24 pm W 11.1 17.1----29.86-- 78.3----
2024-04-15 04:18 pm W 13.0 15.9----29.86- 76.5 78.3----
2024-04-15 04:12 pm W 11.1 15.9----29.86- 76.6 78.3----
2024-04-15 04:06 pmWSW 12.0 15.9----29.86- 76.8 78.3----
2024-04-15 04:00 pm W 13.0 17.1----29.86-0.03 77.4 78.1----
2024-04-15 03:54 pm W 11.1 15.9----29.86- 77.0 78.1----
2024-04-15 03:48 pm W 11.1 15.0----29.86- 77.4 78.1----
2024-04-15 03:42 pmWSW 13.0 17.1----29.86- 76.8 78.1----
2024-04-15 03:36 pm W 13.0 18.1----29.86- 77.0 78.1----
2024-04-15 03:30 pm W 13.0 17.1----29.86- 76.8 78.1----
2024-04-15 03:24 pmWSW 14.0 18.1----29.86- 76.6 78.1----
2024-04-15 03:18 pmWSW 13.0 15.9----29.86- 76.6 78.1----
2024-04-15 03:12 pm W 14.0 17.1----29.86- 76.1 78.1----
2024-04-15 03:06 pmWSW 13.0 18.1----29.86- 75.9 77.9----
2024-04-15 03:00 pm W 13.0 18.1----29.86-0.05- 77.9----
2024-04-15 02:54 pmWSW 12.0 17.1----29.86-- 77.9----
2024-04-15 02:48 pm W 11.1 15.9----29.86- 76.1 77.9----
2024-04-15 02:42 pmWSW 12.0 17.1----29.86- 75.9 77.9----
2024-04-15 02:36 pm W 13.0 18.1----29.86- 75.9 77.9----
2024-04-15 02:30 pmWSW 12.0 17.1----29.87- 76.1 77.9----
2024-04-15 02:24 pmWSW 12.0 15.0----29.87- 75.9 77.7----
2024-04-15 02:18 pmWSW 12.0 15.0----29.87-- 77.7----
2024-04-15 02:12 pmWSW 11.1 17.1----29.87-- 77.7----
2024-04-15 02:06 pmWSW 12.0 15.9----29.87-- 77.7----
2024-04-15 02:00 pm W 11.1 15.9----29.88-0.05 76.1 77.7----
2024-04-15 01:54 pmWSW 12.0 15.9----29.88- 75.9 77.7----
2024-04-15 01:48 pm W 12.0 15.9----29.88- 76.1 77.7----
2024-04-15 01:42 pm W 13.0 17.1----29.88- 75.9 77.5----
2024-04-15 01:36 pm W 13.0 15.9----29.89- 76.1 77.5----
2024-04-15 01:30 pm W 11.1 15.9----29.89- 76.1 77.5----
2024-04-15 01:24 pm W 13.0 18.1----29.89- 75.9 77.5----
2024-04-15 01:18 pm W 14.0 17.1----29.89- 75.9 77.5----
2024-04-15 01:12 pmWSW 12.0 15.9----29.89- 76.1 77.5----
2024-04-15 01:06 pmWSW 13.0 17.1----29.89- 75.9 77.5----
2024-04-15 01:00 pmWSW 12.0 17.1----29.89-0.04 76.1 77.5----
2024-04-15 12:54 pmWSW 11.1 15.0----29.90- 76.1 77.5----
2024-04-15 12:48 pm W 11.1 14.0----29.90- 75.9 77.4----
2024-04-15 12:42 pmWSW 12.0 15.0----29.90- 75.9 77.4----
2024-04-15 12:36 pm SW 12.0 17.1----29.90- 75.7 77.2----
2024-04-15 12:30 pm W 11.1 15.9----29.91-- 77.2----
2024-04-15 12:24 pm W 12.0 15.0----29.91-- 77.2----
2024-04-15 12:18 pm W 12.0 15.9----29.91- 75.7 77.2----
2024-04-15 12:12 pmWSW 13.0 15.9----29.91- 75.6 77.2----
2024-04-15 12:06 pmWSW 12.0 17.1----29.91- 75.7 77.2----
2024-04-15 12:00 pmWSW 11.1 14.0----29.91-0.01 75.6 77.2----
2024-04-15 11:54 amWSW 9.9 15.0----29.91- 75.7 77.2----
2024-04-15 11:48 am W 12.0 15.9----29.92- 75.6 77.2----
2024-04-15 11:42 am W 12.0 15.0----29.92- 75.7 77.2----
2024-04-15 11:36 am W 12.0 15.9----29.92- 75.6 77.2----
2024-04-15 11:30 am W 13.0 15.9----29.92- 75.4 77.2----
2024-04-15 11:24 am W 11.1 15.0----29.92- 75.6 77.2----
2024-04-15 11:18 am W 13.0 15.9------ 75.4 77.2----
2024-04-15 11:12 amWSW 9.9 14.0------ 75.6 77.2----
2024-04-15 11:06 amWSW 9.9 14.0------ 75.7 77.0----
2024-04-15 11:00 am W 12.0 15.0----29.93+0.01 75.4 77.0----
2024-04-15 10:54 am W 8.9 15.0----29.93- 75.6 77.0----
2024-04-15 10:48 am W 11.1 15.0----29.93- 75.6 77.0----
2024-04-15 10:42 am W 9.9 15.9----29.93- 75.6 77.0----
2024-04-15 10:36 amWSW 11.1 15.9----29.93- 75.4 76.8----
2024-04-15 10:30 amWSW 11.1 15.0----29.93- 75.4 76.8----
2024-04-15 10:24 am W 9.9 13.0----29.93- 75.4 76.8----
2024-04-15 10:18 amWSW 11.1 15.0----29.93- 75.4 76.8----
2024-04-15 10:12 amWSW 12.0 14.0----29.93- 75.2 76.8----
2024-04-15 10:06 am W 8.0 13.0----29.93- 75.4 76.8----
2024-04-15 10:00 am W 9.9 13.0----29.93+0.03 75.2 76.8----
2024-04-15 09:54 am W 9.9 13.0----29.93- 74.8 76.8----
2024-04-15 09:48 amWSW 8.9 13.0----29.93- 75.2 76.8----
2024-04-15 09:42 am W 8.9 15.0----29.93- 75.0 76.6----
2024-04-15 09:36 am W 9.9 12.0----29.93- 75.2 76.6----
2024-04-15 09:30 amWSW 9.9 13.0----29.93- 75.0 76.6----
2024-04-15 09:24 am W 8.9 13.0----29.93- 75.2 76.6----
2024-04-15 09:18 am W 8.9 12.0----29.93- 75.0 76.6----
2024-04-15 09:12 am W 8.9 12.0----29.93- 75.0 76.6----
2024-04-15 09:06 am W 7.0 12.0----29.93- 75.2 76.6----
2024-04-15 09:00 am W 8.9 11.1----29.93+0.04 74.8 76.6----
2024-04-15 08:54 am W 8.9 11.1----29.93- 75.0 76.5----
2024-04-15 08:48 am W 8.0 11.1----29.93- 75.0 76.5----
2024-04-15 08:42 am W 8.9 12.0----29.93- 74.8 76.5----
2024-04-15 08:36 am W 8.0 9.9----29.93- 74.8 76.5----
2024-04-15 08:30 am W 8.0 12.0----29.93- 74.8 76.5----
2024-04-15 08:24 am W 7.0 11.1----29.92- 74.8 76.5----
2024-04-15 08:18 am W 7.0 8.9----29.92- 74.5 76.5----
2024-04-15 08:12 amWNW 5.1 7.0----29.92- 73.8 76.5----
2024-04-15 08:06 am NW 4.1 7.0----29.92- 73.6 76.5----
2024-04-15 08:00 am NW 4.1 6.0----29.92+0.04 73.4 76.5----
2024-04-15 07:54 am NW 5.1 6.0----29.91- 73.2 76.5----
2024-04-15 07:48 am NW 4.1 6.0----29.92- 73.2 76.6----
2024-04-15 07:42 amNNW 2.9 4.1----29.92- 72.7 76.6----
2024-04-15 07:36 amNNW 1.9 2.9----29.91- 72.5 76.6----
2024-04-15 07:30 amNNW 1.9 2.9----29.91- 72.1 76.6----
2024-04-15 07:24 am NW 1.9 4.1----29.91- 72.1 76.6----
2024-04-15 07:18 amNNW 4.1 4.1----29.91- 72.1 76.8----
2024-04-15 07:12 am NW 1.9 5.1----29.90- 72.1 76.8----
2024-04-15 07:06 am NW 1.9 2.9----29.90- 72.3 76.8----
2024-04-15 07:00 amNNW 1.9 2.9----29.90+0.03 72.1 76.8----
2024-04-15 06:54 am W 2.9 4.1----29.90- 72.3 76.8----
2024-04-15 06:48 am- 0.0 1.9----29.90- 72.1 76.8----
2024-04-15 06:42 am N 1.0 5.1----29.90- 72.0 76.8----
2024-04-15 06:36 amNNW 1.9 4.1----29.90- 72.0 76.8----
2024-04-15 06:30 am N 2.9 4.1----29.90- 71.8 76.8----
2024-04-15 06:24 am N 2.9 5.1----29.89- 71.8 76.8----
2024-04-15 06:18 am- 0.0 2.9----29.89- 71.8 76.8----
2024-04-15 06:12 amNNW 1.9 5.1----29.89- 71.8 76.8----
2024-04-15 06:06 am NW 2.9 5.1----29.89- 71.8 76.8----
2024-04-15 06:00 am N 1.9 4.1----29.89+0.02 71.8 76.8----
2024-04-15 05:54 am N 1.9 4.1----29.89- 71.8 76.8----
2024-04-15 05:48 am N 1.9 7.0----29.89- 72.1 76.8----
2024-04-15 05:42 am W 6.0 8.0----29.89- 72.7 76.8----
2024-04-15 05:36 am W 2.9 6.0----29.89- 71.8 76.8----
2024-04-15 05:30 amNNW 1.9 4.1----29.89- 71.6 76.8----
2024-04-15 05:24 amNNW 1.9 2.9----29.88- 71.6 76.8----
2024-04-15 05:18 amNNW 1.9 2.9----29.88- 71.6 76.8----
2024-04-15 05:12 am N 1.0 1.9----29.88- 71.4 77.0----
2024-04-15 05:06 am N 1.9 2.9----29.88- 71.4 77.0----
2024-04-15 05:00 am N 1.9 2.9----29.88-0.01 71.4 76.8----
2024-04-15 04:54 am N 1.9 4.1----29.88- 71.4 77.0----
2024-04-15 04:48 amNNW 1.9 2.9----29.88- 71.4 76.8----
2024-04-15 04:42 amNNW 1.0 4.1----29.88- 71.4 76.8----
2024-04-15 04:36 am N 2.9 4.1----29.87- 71.4 76.8----
2024-04-15 04:30 am N 1.0 1.9----29.87-- 76.8----
2024-04-15 04:24 am N 2.9 4.1----29.87-- 76.8----
2024-04-15 04:18 amNNW 1.9 2.9----29.87- 71.4 76.8----
2024-04-15 04:12 am N 1.9 8.0----29.87- 71.6 76.8----
2024-04-15 04:06 am W 6.0 9.9----29.87- 72.1 76.8----
2024-04-15 04:00 am W 1.9 5.1----29.87-0.03 71.4 76.8----
2024-04-15 03:54 am W 1.9 2.9----29.87- 71.4 76.8----
2024-04-15 03:48 am NW 1.9 5.1----29.87- 71.4 76.8----
2024-04-15 03:42 am N 2.9 4.1----29.86- 71.1 76.8----
2024-04-15 03:36 amNNW 1.0 4.1----29.86- 71.1 76.8----
2024-04-15 03:30 am N 2.9 4.1----29.86- 71.1 76.8----
2024-04-15 03:24 am N 1.9 2.9----29.86- 70.9 76.8----
2024-04-15 03:18 am N 1.9 4.1----29.86- 70.7 76.8----
2024-04-15 03:12 amNNW 1.9 2.9----29.87- 71.1 76.8----
2024-04-15 03:06 am N 2.9 4.1----29.87- 70.9 76.8----
2024-04-15 03:00 am N 1.9 2.9----29.87-0.04 70.9 76.8----
2024-04-15 02:54 am N 1.0 2.9----29.87- 70.7 76.8----
2024-04-15 02:48 am- 0.0 1.9----29.87- 70.9 76.8----
2024-04-15 02:42 am N 1.9 2.9----29.87- 70.7 76.8----
2024-04-15 02:36 amNNW 1.0 2.9----29.88- 70.9 76.8----
2024-04-15 02:30 amNNE 1.0 1.9----29.88- 70.7 76.8----
2024-04-15 02:24 am N 1.0 2.9----29.88- 70.7 76.8----
2024-04-15 02:18 am N 1.9 5.1----29.88- 70.7 76.8----
2024-04-15 02:12 am NW 2.9 5.1----29.88- 70.7 76.8----
2024-04-15 02:06 am NW 1.9 5.1----29.88- 70.7 76.8----
2024-04-15 02:00 amNNW 2.9 4.1----29.89-0.04 70.5 76.8----
2024-04-15 01:54 am N 2.9 5.1----29.89- 70.5 76.8----
2024-04-15 01:48 am NW 2.9 7.0----29.89- 70.7 77.0----
2024-04-15 01:42 amWNW 4.1 4.1----29.89- 70.5 77.0----
2024-04-15 01:36 am W 2.9 5.1----29.89- 70.3 77.0----
2024-04-15 01:30 am W 4.1 6.0----29.89- 70.2 77.0----
2024-04-15 01:24 amWSW 5.1 8.0----29.89- 70.0 77.0----
2024-04-15 01:18 amWSW 6.0 7.0----29.90- 70.2 77.0----
2024-04-15 01:12 amWSW 5.1 8.0----29.89- 70.3 77.0----
2024-04-15 01:06 amWNW 4.1 5.1----29.90- 71.4 77.0----
2024-04-15 01:00 am NW 1.9 2.9----29.90-0.04 71.6 77.0----
2024-04-15 12:54 amNNW 2.9 4.1----29.90- 71.8 77.0----